Regional Weather Roundup
Issued by NWS

Home | Current Version | Previous Version | Text Only | Print | Product List | Glossary Off
Versions: 1 2 3 4 5 6 7 8 9 10 11 12 13 14 15 16 17 18 19 20 21 22 23 24 25 26 27 28 29 30 31 32 33 34 35 36 37 38 39 40 41 42 43 44 45 46 47 48 49 50

000
ASUS43 KMPX 290810
RWRMN
WEATHER ROUNDUP FOR MINNESOTA
NATIONAL WEATHER SERVICE TWIN CITIES/CHANHASSEN MN
300 AM CDT SUN MAR 29 2015


NOTE: "FAIR" INDICATES FEW OR NO CLOUDS BELOW 12,000 FEET WITH NO
SIGNIFICANT WEATHER AND/OR OBSTRUCTIONS TO VISIBILITY. N/A MEANS
CURRENT SKY AND/OR WEATHER CONDITIONS ARE NOT AVAILABLE.

MNZ060>063-068>070-290900-
   Twin Cities Metro

CITY           SKY/WX    TMP DP  RH WIND       PRES   REMARKS
TWIN CITIES    MOCLDY    37  22  54 S22G28    29.84F
ST PAUL        MOCLDY    35  22  58 S20       29.86F WCI  24
CRYSTAL        MOCLDY    38  22  52 S16       29.80F
BLAINE         MOCLDY    37  23  56 S14G23    29.81F
LAKEVILLE      PTCLDY    34  23  64 S15G22    29.84F WCI  24
EDEN PRAIRIE   CLOUDY    38  23  55 S18G24    29.81F
SOUTH ST PAUL  MOCLDY    36  22  57 S14G23    29.86F
LAKE ELMO      FAIR      36  23  60 S17G26    29.85F
$$
MNZ001>005-007-008-013>017-022>024-027-028-290900-
   Northwest Minnesota

CITY           SKY/WX    TMP DP  RH WIND       PRES   REMARKS
BEMIDJI        CLOUDY    39  27  63 S14G22    29.54F
HALLOCK        LGT RAIN  41  37  87 S18       29.40F
ROSEAU         LGT RAIN  37  34  87 S17       29.43F
WARROAD        RAIN      39  36  87 S10G17    29.44F
THIEF RVR FALL CLOUDY    41  36  81 S25G35    29.44F
CROOKSTON      CLOUDY    37  37 100 S30G36    29.47F
FOSSTON        LGT RAIN  37  34  87 S24G33    29.50F
DETROIT LAKES  CLOUDY    41  32  70 S18       29.57F
MOORHEAD       HVY RAIN  39  37  93 S17G25    29.56F
PARK RAPIDS    CLOUDY    39  26  59 S16G24    29.59F
MAHNOMEN       LGT RAIN  38  34  84 S22G29    29.53F
$$
MNZ006-009>011-018-025>026-290900-
   North Central Minnesota

CITY           SKY/WX    TMP DP  RH WIND       PRES   REMARKS
BAUDETTE       LGT RAIN  37  31  78 S13       29.45F
FLAG ISLAND    RAIN      34  32  93 S8        29.44F WCI  27
INTL FALLS     CLOUDY    37  25  61 S10G22    29.53F
WASKISH        LGT RAIN  39  30  70 S16G26    29.48F
BIG FORK       CLOUDY    37  25  60 S17G23    29.58F
LONGVILLE      CLOUDY    36  25  64 S16       29.61F
GRAND RAPIDS   CLOUDY    34  21  60 SE22      29.63F WCI  22
CRANE LAKE     CLOUDY    34  21  60 S10G22    29.62F WCI  26
ORR            CLOUDY    36  19  51 S17G26    29.57F
COOK           CLOUDY    34  21  60 S10G25    29.61F WCI  26
WALKER         PTSUNNY   37  26  62 S15G24    29.58F
$$
MNZ012-019>021-037-290900-
   Northeast Minnesota

CITY           SKY/WX    TMP DP  RH WIND       PRES   REMARKS
DULUTH         CLOUDY    35  18  49 SW12      29.79R WCI  27
ELY            FLURRIES  34  19  55 S13G22    29.70F WCI  25
HIBBING        CLOUDY    33  19  56 S10       29.69F WCI  25
EVELETH        CLOUDY    34  21  60 S15G21    29.72F WCI  24
DULUTH HARBOR  CLOUDY    37  19  48 W10       29.84R
TWO HARBORS    CLOUDY    37  21  52 SW7       29.78R
SILVER BAY     CLOUDY    36  19  51 SW6       29.78R
GRAND MARAIS     N/A     32  25  75 W7        29.81F WCI  26
G MARAIS ARPRT CLOUDY    28  18  64 S13       29.75S WCI  18
$$
MNZ029>031-032-039>041-046>048-054>057-064-290900-
   West Central Minnesota

CITY           SKY/WX    TMP DP  RH WIND       PRES   REMARKS
FERGUS FALLS   CLOUDY    37  30  75 S16       29.63F
WHEATON        CLOUDY    37  32  81 SE14      29.62F
MORRIS         CLOUDY    37  30  75 SE13      29.64F
ALEXANDRIA     CLOUDY    37  31  78 S21G26    29.67F
ELBOW LAKE     CLOUDY    37  32  83 S21       29.62F
WADENA         LGT RAIN  37  28  70 S14       29.62F
GLENWOOD       CLOUDY    37  30  75 S20G28    29.69F
APPLETON       LGT RAIN  43  34  70 S10       29.66F
BENSON         CLOUDY    39  30  70 S13G18    29.68F
ORTONVILLE     CLOUDY    45  32  61 S6        29.64F
MADISON        CLOUDY    45  32  61 S16       29.66F
WILLMAR        FAIR      37  30  75 S13G18    29.73F
$$
MNZ033>034-036-042>043-049>051-058-059-290900-
   Central Minnesota

CITY           SKY/WX    TMP DP  RH WIND       PRES   REMARKS
ST CLOUD       CLOUDY    38  24  57 S18G28    29.75F
SAUK CENTRE    LGT RAIN  35  32  88 S13       29.71F WCI  26
PAYNESVILLE    LGT RAIN  33  29  86 SE18G29   29.73R WCI  22
AITKIN         MOCLDY    37  25  60 S12       29.69F
PINE RIVER     MOCLDY    36  27  69 S13G20    29.68F
BRAINERD       MOCLDY    35  24  64 S12G22    29.68F WCI  27
STAPLES        DRIZZLE   36  28  75 S18       29.66F
LONG PRAIRIE   MIX PCPN  34  32  93 SE15G21   29.69F WCI  24
LITTLE FALLS   MIX PCPN  36  28  75 SE12      29.72F
LITCHFIELD     CLOUDY    36  34  93 S3        29.76S
BUFFALO        CLOUDY    37  25  60 S14G22    29.79F
MAPLE LAKE     CLOUDY    39  28  64 S18G26    29.75F
$$
MNZ037-044-045-052-053-290900-
   East Central Minnesota

CITY           SKY/WX    TMP DP  RH WIND       PRES   REMARKS
PRINCETON      CLOUDY    37  23  56 S12G25    29.77F
MORA           CLOUDY    34  21  60 S10       29.80F WCI  26
CAMBRIDGE      CLOUDY    37  23  56 S14       29.76F
RUSH CITY      CLOUDY    35  20  55 S14G21    29.79F WCI  26
MOOSE LAKE     MOCLDY    34  19  55 S10G20    29.76R WCI  26
HINCKLEY       FAIR      34  21  60 S17       29.79F WCI  23
CLOQUET        MOCLDY    36  18  48 SW9G16    29.79R
MCGREGOR       MOCLDY    36  23  60 S13       29.72F
$$
MNZ071>073-080-081-089-090-097-098-290900-
   Southwest Minnesota

CITY           SKY/WX    TMP DP  RH WIND       PRES   REMARKS
MONTEVIDEO     CLOUDY    41  34  75 SW14      29.69F
GRANITE FALLS  CLOUDY    40  32  72 SE10      29.72F
CANBY          CLOUDY    44  33  63 SW15G25   29.64F
MARSHALL       CLOUDY    43  30  61 SW35G44   29.65S
REDWOOD FALLS  LGT RAIN  40  32  73 S20       29.73S
OLIVIA         LGT RAIN  37  30  75 S18G26    29.72R
PIPESTONE      CLOUDY    39  32  75 S18G26    29.72S
WINDOM         DRIZZLE   39  30  70 S23G30    29.74F
WORTHINGTON    CLOUDY    39  30  70 S24G31    29.75S
JACKSON        RAIN      37  30  75 S23G35    29.77F
TRACY          DRIZZLE   41  33  72 S29G40    29.65F
SLAYTON        CLOUDY    38  32  78 S29G36    29.71R
$$
MNZ065>067-074>077-082>085-091>093-290900-
   South Central Minnesota

CITY           SKY/WX    TMP DP  RH WIND       PRES   REMARKS
MANKATO        MOCLDY    37  25  60 S21G29    29.83R
NEW ULM        LGT RAIN  37  28  70 S28G36    29.74F
ST JAMES       CLOUDY    39  28  65 SE25G35   29.76F
FAIRMONT       MOCLDY    37  27  65 S28G33    29.82R
GLENCOE        CLOUDY    38  30  72 S17G24    29.75F
FARIBAULT      PTCLDY    34  25  69 S17G25    29.85F WCI  23
OWATONNA       PTCLDY    34  23  64 S24G33    29.85F WCI  21
WASECA         PTCLDY    36  27  69 S21G31    29.87F
ALBERT LEA     CLEAR     34  23  64 S21G26    29.86F WCI  22
$$
MNZ078>079-086>088-094>096-290900-
   Southeast Minnesota

CITY           SKY/WX    TMP DP  RH WIND       PRES   REMARKS
ROCHESTER      MOCLDY    31  20  63 S23       29.91F WCI  18
RED WING       MOCLDY    36  18  48 S13       29.90F
STANTON        PTCLDY    35  24  62 S17G29    29.83F WCI  25
DODGE CENTER   PTCLDY    32  25  74 S25       29.87F WCI  19
WINONA         PTCLDY    36  19  51 SE12G18   29.97F
AUSTIN         PTCLDY    32  21  64 S16G29    29.89F WCI  21
PRESTON        PTCLDY    30  19  65 S21G28    29.92F WCI  17
$$
ABBREVIATIONS USED IN REMARKS
   TC - TEMPERATURES IN CELSIUS
  WCI - WIND CHILL INDEX
   HX - HEAT INDEX
  VSB - VISIBILITY
$$


USA.gov is the U.S. government's official web portal to all federal, state and local government web resources and services.